Weather in Plyskiv

Ukraine / Vinnytsia Region     49°22′09″N   29°17′06″E
temp.,
°C
wind,
m/s
gust,
m/s
humid.,
%
clouds,
%
prec.,
mm/h
press.,
hPa
HPBL,
m
22 april, thu
thu2200:00+7sw47785 0.0 1016111
03:00+6sw38815 0.0 1016128
06:00+5sw48855 0.0 1017130
09:00+11ssw586770 0.0 1017413
12:00+15sw6850100 0.0 10171596
15:00+16ssw784463 0.0 10162296
18:00+14ssw4860100 0.0 1015293
21:00+9wsw347925 0.3 101661
23 april, fri
fri2300:00+8ssw2290100 0.8 101534
03:00+7wnw489433 1.1 1015208
06:00+4nnw499392 0.0 1017323
09:00+5n4683100 0.8 1018546
12:00+7nw3569100 1.3 10181170
15:00+8wnw5653100 1.5 10181559
18:00+9nw675613 0.1 10171424
21:00+5wnw37725 0.1 1019137
24 april, sat
sat2400:00+3w37784 0.0 1019122
03:00+2wsw498197 0.0 1018171
06:00+2w8138384 0.0 1018842
09:00+3wnw9136560 0.1 10201263
12:00+5wnw91147100 0.1 10202133
15:00+7nw81045100 0.1 10212374
18:00+7nw695032 0.0 10212121
21:00+3wnw38670 0.1 1022135
25 april, sun
sun2500:00+2wsw36700 0.0 102296
03:00+1wsw37755 0.0 1022122
06:000sw37765 0.0 1021113
09:00+5w81266100 0.0 10201227
12:00+5wnw688694 0.4 1021798
15:00+5nw787166 0.6 1021960
18:00+6nw785850 0.1 10211320
21:00+2wnw37752 0.2 1022116
26 april, mon
mon2600:00+1w37781 0.0 1022138
03:000wsw48831 0.0 1021158
06:000wsw411815 0.0 1022249
09:00+5w610605 0.0 1021906
12:00+9wnw684410 0.0 10202003
15:00+10w4639100 0.0 10182273
18:00+10sw3548100 0.0 10161915
21:00+6se3361100 0.0 101525